K5SVV Weather Reports


Display with metric or nautical units.
time (UTC)temp
F
wind
direction
speed
MPH
gust
MPH
rain 1hr
in
rain 24hr
in
rain mn
in
humidity
%
barometer
mb
20260902222748 98 38 1.0 1.0 0.00 0.00 0.00 40 1010.9
20260902222243 99 52 5.0 6.0 0.00 0.00 0.00 41 1010.8
20260902221737 99 145 0.0 0.0 0.00 0.00 0.00 42 1010.7
20260902221236 98 201 0.0 0.0 0.00 0.00 0.00 41 1011.1
20260902220731 99 11 5.0 6.0 0.00 0.00 0.00 41 1010.8
20260902220226 99 21 4.0 4.0 0.00 0.00 0.00 41 1011.0
20260902215722 99 104 3.0 4.0 0.00 0.00 0.00 40 1010.8
20260902215217 99 102 2.0 2.0 0.00 0.00 0.00 41 1010.8
20260902214713 98 62 2.0 4.0 0.00 0.00 0.00 41 1010.9
20260902214211 98 51 9.0 10.0 0.00 0.00 0.00 42 1011.2
20260902213707 98 143 1.0 1.0 0.00 0.00 0.00 42 1010.8
20260902213202 99 2 10.0 11.0 0.00 0.00 0.00 41 1011.0
20260902212656 98 147 1.0 1.0 0.00 0.00 0.00 42 1011.0
20260902212153 98 89 5.0 7.0 0.00 0.00 0.00 42 1011.3
20260902211649 98 33 2.0 2.0 0.00 0.00 0.00 42 1011.2
20260902211149 98 126 2.0 2.0 0.00 0.00 0.00 42 1011.5
20260902210648 98 40 4.0 6.0 0.00 0.00 0.00 42 1011.4
20260902210143 98 78 0.0 0.0 0.00 0.00 0.00 43 1011.4
20260902205642 97 15 6.0 8.0 0.00 0.00 0.00 44 1011.6
20260902205137 98 352 7.0 8.0 0.00 0.00 0.00 42 1011.4
20260902204632 97 5 6.0 8.0 0.00 0.00 0.00 44 1011.4
20260902204126 97 45 7.0 10.0 0.00 0.00 0.00 43 1011.4
20260902203622 97 69 3.0 4.0 0.00 0.00 0.00 44 1011.6
20260902203121 97 23 6.0 9.0 0.00 0.00 0.00 44 1012.0
20260902202612 97 11 5.0 6.0 0.00 0.00 0.00 44 1011.9
20260902202108 97 15 8.0 10.0 0.00 0.00 0.00 44 1011.8
20260902201604 97 19 8.0 10.0 0.00 0.00 0.00 44 1011.8
20260902201103 97 33 5.0 6.0 0.00 0.00 0.00 46 1012.1
20260902200558 96 339 9.0 14.0 0.00 0.00 0.00 47 1012.2
20260902200054 97 325 5.0 6.0 0.00 0.00 0.00 46 1012.1
20260902195550 97 351 8.0 9.0 0.00 0.00 0.00 45 1012.2
20260902195048 96 336 6.0 8.0 0.00 0.00 0.00 46 1012.3
20260902194542 96 23 9.0 9.0 0.00 0.00 0.00 47 1012.4
20260902194038 97 325 3.0 3.0 0.00 0.00 0.00 47 1012.4
20260902193534 96 8 1.0 2.0 0.00 0.00 0.00 46 1012.4
20260902193033 96 344 8.0 10.0 0.00 0.00 0.00 46 1012.4
20260902192531 96 333 7.0 8.0 0.00 0.00 0.00 45 1012.7
20260902192030 96 328 9.0 10.0 0.00 0.00 0.00 45 1012.8
20260902191526 96 42 9.0 10.0 0.00 0.00 0.00 44 1013.0
20260902191020 95 67 2.0 3.0 0.00 0.00 0.00 48 1012.9
20260902190516 95 306 4.0 6.0 0.00 0.00 0.00 50 1013.3
20260902190012 95 308 7.0 9.0 0.00 0.00 0.00 50 1013.4
20260902185508 94 16 6.0 7.0 0.00 0.00 0.00 49 1013.3
20260902185003 94 358 1.0 3.0 0.00 0.00 0.00 51 1013.3
20260902184458 95 20 9.0 11.0 0.00 0.00 0.00 50 1013.3
20260902183953 96 72 4.0 6.0 0.00 0.00 0.00 48 1013.5
20260902183449 96 103 2.0 3.0 0.00 0.00 0.00 47 1013.6
20260902182945 96 283 0.0 0.0 0.00 0.00 0.00 47 1013.6
20260902182441 95 115 0.0 0.0 0.00 0.00 0.00 48 1013.7
20260902181937 95 28 0.0 0.0 0.00 0.00 0.00 48 1013.7
20260902181432 95 332 5.0 8.0 0.00 0.00 0.00 48 1013.8
20260902180926 95 6 5.0 7.0 0.00 0.00 0.00 48 1014.0
20260902180421 95 79 4.0 6.0 0.00 0.00 0.00 50 1014.1
20260902175912 95 41 0.0 0.0 0.00 0.00 0.00 49 1014.1
20260902175406 94 88 1.0 1.0 0.00 0.00 0.00 50 1014.6
20260902174901 93 63 1.0 2.0 0.00 0.00 0.00 51 1014.6
20260902174353 93 75 1.0 2.0 0.00 0.00 0.00 54 1014.7
20260902173848 93 42 3.0 4.0 0.00 0.00 0.00 53 1014.8
20260902173348 93 11 4.0 7.0 0.00 0.00 0.00 52 1014.6
20260902172843 93 29 3.0 3.0 0.00 0.00 0.00 52 1014.5
20260902172341 92 4 4.0 4.0 0.00 0.00 0.00 55 1015.0
20260902171832 92 12 6.0 7.0 0.00 0.00 0.00 57 1015.0
20260902171327 91 273 2.0 2.0 0.00 0.00 0.00 57 1015.0
20260902170824 91 33 5.0 7.0 0.00 0.00 0.00 58 1015.2
20260902170319 91 156 0.0 0.0 0.00 0.00 0.00 58 1015.2
20260902165814 91 6 5.0 7.0 0.00 0.00 0.00 57 1015.3
20260902165313 92 321 4.0 4.0 0.00 0.00 0.00 58 1015.2
20260902164808 91 121 1.0 2.0 0.00 0.00 0.00 57 1015.4
20260902164302 91 19 3.0 3.0 0.00 0.00 0.00 59 1015.3
20260902163752 92 136 0.0 0.0 0.00 0.00 0.00 59 1015.5
20260902163251 91 158 0.0 0.0 0.00 0.00 0.00 59 1015.4
20260902162750 90 35 5.0 6.0 0.00 0.00 0.00 59 1015.5
20260902162245 91 335 2.0 3.0 0.00 0.00 0.00 60 1015.5
20260902161740 90 155 1.0 1.0 0.00 0.00 0.00 61 1015.6
20260902161235 88 134 0.0 0.0 0.00 0.00 0.00 62 1015.5
20260902160732 88 4 7.0 8.0 0.00 0.00 0.00 63 1015.6
20260902160226 88 329 4.0 4.0 0.00 0.00 0.00 65 1015.8
20260902155724 89 329 2.0 2.0 0.00 0.00 0.00 63 1015.5
20260902155223 88 95 0.0 0.0 0.00 0.00 0.00 64 1015.7
20260902154718 88 319 0.0 0.0 0.00 0.00 0.00 65 1015.6
20260902154213 87 163 0.0 2.0 0.00 0.00 0.00 64 1015.7
20260902153712 87 2 4.0 6.0 0.00 0.00 0.00 66 1015.5
20260902153207 87 16 5.0 6.0 0.00 0.00 0.00 66 1015.7
20260902152703 87 30 2.0 2.0 0.00 0.00 0.00 67 1016.0
20260902152158 87 133 0.0 0.0 0.00 0.00 0.00 65 1015.7
20260902151654 87 338 0.0 0.0 0.00 0.00 0.00 66 1015.6
20260902151149 87 54 0.0 0.0 0.00 0.00 0.00 65 1015.8
20260902150644 87 162 0.0 0.0 0.00 0.00 0.00 67 1015.9
20260902150139 86 194 0.0 0.0 0.00 0.00 0.00 68 1015.8
20260902145638 86 173 2.0 3.0 0.00 0.00 0.00 68 1015.7
20260902145138 86 188 2.0 2.0 0.00 0.00 0.00 69 1015.5
20260902144635 86 214 0.0 0.0 0.00 0.00 0.00 71 1015.8
20260902144130 86 152 0.0 0.0 0.00 0.00 0.00 70 1015.6
20260902143625 85 157 0.0 0.0 0.00 0.00 0.00 71 1015.7
20260902143121 85 95 0.0 1.0 0.00 0.00 0.00 71 1015.7
20260902142616 85 179 0.0 0.0 0.00 0.00 0.00 71 1015.9
20260902142112 84 158 0.0 0.0 0.00 0.00 0.00 72 1015.5
20260902141611 84 163 0.0 0.0 0.00 0.00 0.00 72 1015.6
20260902141107 84 147 0.0 0.0 0.00 0.00 0.00 72 1015.4
20260902140602 84 155 0.0 0.0 0.00 0.00 0.00 73 1015.5
20260902140057 84 172 0.0 0.0 0.00 0.00 0.00 73 1015.5
20260902135556 83 168 0.0 0.0 0.00 0.00 0.00 74 1015.8
20260902135056 83 182 0.0 0.0 0.00 0.00 0.00 74 1015.7
20260902134552 82 146 0.0 0.0 0.00 0.00 0.00 75 1015.5
20260902134047 82 168 0.0 0.0 0.00 0.00 0.00 74 1015.7
20260902133546 82 165 0.0 0.0 0.00 0.00 0.00 74 1015.7
20260902133041 82 156 0.0 0.0 0.00 0.00 0.00 75 1015.4
20260902132537 81 145 0.0 0.0 0.00 0.00 0.00 75 1015.5
20260902132032 81 131 0.0 0.0 0.00 0.00 0.00 75 1015.5
20260902131529 80 147 0.0 0.0 0.00 0.00 0.00 77 1015.4
20260902131028 79 159 0.0 0.0 0.00 0.00 0.00 79 1015.4
20260902130524 78 159 0.0 0.0 0.00 0.00 0.00 81 1015.4
20260902130020 77 159 0.0 0.0 0.00 0.00 0.00 83 1015.5
20260902125515 77 168 0.0 0.0 0.00 0.00 0.00 85 1015.5
20260902125010 75 175 0.0 0.0 0.00 0.00 0.00 87 1015.3
20260902124507 74 201 0.0 0.0 0.00 0.00 0.00 88 1015.2
20260902124001 74 198 0.0 0.0 0.00 0.00 0.00 88 1015.1
20260902123458 74 198 0.0 0.0 0.00 0.00 0.00 88 1015.0
20260902122956 73 198 0.0 0.0 0.00 0.00 0.00 88 1014.9
20260902122452 73 198 0.0 0.0 0.00 0.00 0.00 88 1014.8
20260902121948 73 198 0.0 0.0 0.00 0.00 0.00 88 1014.8
20260902121448 73 198 0.0 0.0 0.00 0.00 0.00 88 1014.9
20260902120943 73 198 0.0 0.0 0.00 0.00 0.00 87 1014.7
20260902120439 73 198 0.0 0.0 0.00 0.00 0.00 87 1014.9
20260902115938 73 198 0.0 0.0 0.00 0.00 0.00 87 1014.6
20260902115435 74 198 0.0 0.0 0.00 0.00 0.00 87 1014.7
20260902114931 74 198 0.0 0.0 0.00 0.00 0.00 86 1014.7
20260902114426 74 198 0.0 0.0 0.00 0.00 0.00 86 1014.8
20260902113921 74 198 0.0 0.0 0.00 0.00 0.00 86 1014.8
20260902113417 74 198 0.0 0.0 0.00 0.00 0.00 86 1014.7
20260902112916 74 198 0.0 0.0 0.00 0.00 0.00 86 1014.9
20260902112413 74 198 0.0 0.0 0.00 0.00 0.00 86 1014.7
20260902111908 74 198 0.0 0.0 0.00 0.00 0.00 86 1014.7
20260902111405 74 198 0.0 0.0 0.00 0.00 0.00 86 1015.0
20260902110900 74 198 0.0 0.0 0.00 0.00 0.00 86 1014.6
20260902110356 74 198 0.0 0.0 0.00 0.00 0.00 86 1014.7
20260902105856 74 198 0.0 0.0 0.00 0.00 0.00 86 1014.7
20260902105350 74 198 0.0 0.0 0.00 0.00 0.00 86 1014.8
20260902104845 74 198 0.0 0.0 0.00 0.00 0.00 86 1014.7
20260902104341 75 198 0.0 0.0 0.00 0.00 0.00 85 1014.7
20260902103836 74 198 0.0 0.0 0.00 0.00 0.00 85 1014.7
20260902103331 75 198 0.0 0.0 0.00 0.00 0.00 85 1014.8
20260902102825 75 198 0.0 0.0 0.00 0.00 0.00 85 1014.7
20260902102324 75 198 0.0 0.0 0.00 0.00 0.00 85 1014.9
20260902101819 75 198 0.0 0.0 0.00 0.00 0.00 85 1014.8
20260902101318 75 198 0.0 0.0 0.00 0.00 0.00 85 1014.7
20260902100812 75 198 0.0 0.0 0.00 0.00 0.00 85 1014.9
20260902100306 75 198 0.0 0.0 0.00 0.00 0.00 84 1014.9
20260902095801 75 198 0.0 0.0 0.00 0.00 0.00 84 1014.8
20260902095256 75 198 0.0 0.0 0.00 0.00 0.00 84 1014.8
20260902094750 75 198 0.0 0.0 0.00 0.00 0.00 83 1014.9
20260902094247 76 198 0.0 0.0 0.00 0.00 0.00 83 1014.9
20260902093746 76 198 0.0 0.0 0.00 0.00 0.00 82 1015.0
20260902093242 76 198 0.0 0.0 0.00 0.00 0.00 82 1014.6
20260902092741 76 198 0.0 0.0 0.00 0.00 0.00 81 1014.6
20260902092236 77 198 0.0 0.0 0.00 0.00 0.00 81 1014.6
20260902091735 77 198 0.0 0.0 0.00 0.00 0.00 80 1014.7
20260902091232 77 198 0.0 0.0 0.00 0.00 0.00 80 1014.7
20260902090728 77 198 0.0 0.0 0.00 0.00 0.00 80 1014.7
20260902090227 77 199 0.0 0.0 0.00 0.00 0.00 80 1014.7
20260902085721 78 201 0.0 0.0 0.00 0.00 0.00 79 1014.4
20260902085217 78 201 0.0 0.0 0.00 0.00 0.00 79 1014.4
20260902084713 78 201 0.0 0.0 0.00 0.00 0.00 78 1014.5
20260902084209 78 201 0.0 0.0 0.00 0.00 0.00 78 1014.6
20260902083708 78 211 0.0 0.0 0.00 0.00 0.00 78 1014.4
20260902083203 78 200 0.0 0.0 0.00 0.00 0.00 78 1014.5
20260902082658 78 207 0.0 0.0 0.00 0.00 0.00 77 1014.5
20260902082155 79 201 0.0 0.0 0.00 0.00 0.00 77 1014.4
20260902081651 79 192 0.0 0.0 0.00 0.00 0.00 77 1014.6
20260902081146 79 172 0.0 0.0 0.00 0.00 0.00 77 1014.5
20260902080641 79 191 0.0 0.0 0.00 0.00 0.00 77 1014.7
20260902080138 79 181 0.0 0.0 0.00 0.00 0.00 77 1014.7
20260902075637 79 193 0.0 0.0 0.00 0.00 0.00 77 1014.7
20260902075133 79 186 0.0 0.0 0.00 0.00 0.00 76 1014.6
20260902074628 79 168 0.0 0.0 0.00 0.00 0.00 76 1014.7
20260902074123 80 183 0.0 0.0 0.00 0.00 0.00 76 1014.9
20260902073618 80 190 0.0 0.0 0.00 0.00 0.00 76 1015.0
20260902073115 80 175 0.0 0.0 0.00 0.00 0.00 75 1014.8
20260902072610 80 168 0.0 0.0 0.00 0.00 0.00 75 1014.7
20260902072106 80 156 0.0 0.0 0.00 0.00 0.00 74 1014.7
20260902071601 80 166 0.0 0.0 0.00 0.00 0.00 74 1014.9
20260902071057 81 183 0.0 0.0 0.00 0.00 0.00 74 1014.8
20260902070552 81 183 0.0 0.0 0.00 0.00 0.00 74 1014.8
20260902070041 81 179 0.0 0.0 0.00 0.00 0.00 74 1015.1
20260902065535 81 169 0.0 0.0 0.00 0.00 0.00 73 1014.9
20260902065030 81 173 0.0 0.0 0.00 0.00 0.00 73 1015.2
20260902064526 81 168 0.0 0.0 0.00 0.00 0.00 73 1014.9
20260902064022 82 174 0.0 0.0 0.00 0.00 0.00 73 1014.8
20260902063521 82 182 0.0 0.0 0.00 0.00 0.00 72 1014.8
20260902063016 82 176 0.0 0.0 0.00 0.00 0.00 72 1014.7
20260902062514 82 177 0.0 0.0 0.00 0.00 0.00 72 1014.8
20260902062010 82 163 0.0 0.0 0.00 0.00 0.00 72 1014.6
20260902061504 82 167 0.0 1.0 0.00 0.00 0.00 72 1014.6
20260902061000 82 167 0.0 0.0 0.00 0.00 0.00 71 1014.6
20260902060456 82 176 0.0 0.0 0.00 0.00 0.00 71 1014.7
20260902055952 82 164 0.0 0.0 0.00 0.00 0.00 71 1014.7
20260902055448 83 182 0.0 0.0 0.00 0.00 0.00 71 1014.7
20260902054944 83 134 5.0 7.0 0.00 0.00 0.00 71 1014.5
20260902054433 83 182 0.0 0.0 0.00 0.00 0.00 71 1014.6
20260902053929 83 90 3.0 8.0 0.00 0.00 0.00 70 1014.4
20260902053424 83 169 0.0 0.0 0.00 0.00 0.00 70 1014.5
20260902052923 83 172 1.0 4.0 0.00 0.00 0.00 70 1014.7
20260902052418 83 171 4.0 4.0 0.00 0.00 0.00 70 1014.6
20260902051913 83 181 1.0 2.0 0.00 0.00 0.00 70 1014.5
20260902051408 83 181 0.0 0.0 0.00 0.00 0.00 70 1014.5
20260902050906 83 163 4.0 6.0 0.00 0.00 0.00 70 1014.7
20260902050401 83 165 0.0 0.0 0.00 0.00 0.00 69 1014.6
20260902045856 83 164 0.0 0.0 0.00 0.00 0.00 69 1014.7
20260902045351 83 167 0.0 0.0 0.00 0.00 0.00 69 1014.5
20260902044848 84 176 0.0 0.0 0.00 0.00 0.00 69 1014.5
20260902044343 84 177 0.0 0.0 0.00 0.00 0.00 68 1014.7
20260902043843 84 180 1.0 1.0 0.00 0.00 0.00 68 1014.6
20260902043338 84 175 0.0 0.0 0.00 0.00 0.00 68 1014.8
20260902042838 84 158 0.0 1.0 0.00 0.00 0.00 67 1014.6
20260902042332 84 176 2.0 3.0 0.00 0.00 0.00 67 1014.7
20260902041828 85 180 2.0 3.0 0.00 0.00 0.00 66 1014.5
20260902041328 85 173 0.0 0.0 0.00 0.00 0.00 66 1014.5
20260902040826 85 172 2.0 2.0 0.00 0.00 0.00 65 1014.7
20260902040322 85 159 1.0 3.0 0.00 0.00 0.00 65 1014.5
20260902035820 85 167 1.0 6.0 0.00 0.00 0.00 64 1014.5
20260902035317 86 174 0.0 1.0 0.00 0.00 0.00 64 1014.5
20260902034815 86 179 3.0 3.0 0.00 0.00 0.00 63 1014.5
20260902034311 86 156 3.0 4.0 0.00 0.00 0.00 63 1014.5
20260902033808 86 151 1.0 2.0 0.00 0.00 0.00 62 1014.4
20260902033304 86 177 1.0 3.0 0.00 0.00 0.00 62 1014.5
20260902032803 86 147 4.0 7.0 0.00 0.00 0.00 62 1014.2
20260902032258 84 179 0.0 0.0 0.00 0.00 0.00 63 1014.4
20260902031757 84 187 0.0 0.0 0.00 0.00 0.00 65 1013.9
20260902031253 85 187 0.0 0.0 0.00 0.00 0.00 64 1013.9
20260902030748 85 187 0.0 0.0 0.00 0.00 0.00 63 1013.9
20260902030243 85 187 0.0 0.0 0.00 0.00 0.00 63 1013.7
20260902025742 85 187 0.0 0.0 0.00 0.00 0.00 63 1013.6
20260902025238 85 187 0.0 0.0 0.00 0.00 0.00 63 1013.4
20260902024732 85 187 0.0 0.0 0.00 0.00 0.00 62 1013.4
20260902024228 85 187 0.0 0.0 0.00 0.00 0.00 62 1013.5
20260902023724 86 187 0.0 0.0 0.00 0.00 0.00 62 1013.3
20260902023219 86 187 0.0 0.0 0.00 0.00 0.00 61 1013.4
20260902022719 86 187 0.0 0.0 0.00 0.00 0.00 61 1013.1
20260902022214 87 187 0.0 0.0 0.00 0.00 0.00 60 1013.0
20260902021709 87 187 0.0 0.0 0.00 0.00 0.00 60 1013.1
20260902021204 87 187 0.0 0.0 0.00 0.00 0.00 59 1013.0
20260902020700 87 187 0.0 0.0 0.00 0.00 0.00 59 1012.9
20260902020155 87 187 0.0 0.0 0.00 0.00 0.00 59 1012.9
20260902015651 87 184 0.0 0.0 0.00 0.00 0.00 58 1012.7
20260902015148 88 183 0.0 0.0 0.00 0.00 0.00 57 1012.9
20260902014643 89 183 0.0 0.0 0.00 0.00 0.00 57 1012.8
20260902014138 89 179 0.0 0.0 0.00 0.00 0.00 56 1012.7
20260902013637 89 179 0.0 0.0 0.00 0.00 0.00 56 1012.7
20260902013134 89 179 0.0 0.0 0.00 0.00 0.00 55 1012.5
20260902012629 89 176 0.0 0.0 0.00 0.00 0.00 55 1012.9
20260902012124 89 148 0.0 0.0 0.00 0.00 0.00 54 1012.6
20260902011620 90 154 0.0 0.0 0.00 0.00 0.00 54 1012.9
20260902011119 90 108 0.0 0.0 0.00 0.00 0.00 54 1012.5
20260902010613 90 155 0.0 0.0 0.00 0.00 0.00 53 1012.6
20260902010109 90 155 0.0 0.0 0.00 0.00 0.00 53 1012.7
20260902005606 91 155 0.0 0.0 0.00 0.00 0.00 52 1012.7
20260902005103 91 154 0.0 0.0 0.00 0.00 0.00 52 1012.5
20260902004602 92 154 0.0 0.0 0.00 0.00 0.00 51 1012.4
20260902004057 92 154 0.0 0.0 0.00 0.00 0.00 51 1012.5
20260902003552 93 154 0.0 0.0 0.00 0.00 0.00 50 1012.5
20260902003048 93 38 2.0 3.0 0.00 0.00 0.00 49 1012.5
20260902002543 94 118 1.0 2.0 0.00 0.00 0.00 49 1012.6
20260902002038 94 14 0.0 1.0 0.00 0.00 0.00 48 1012.4
20260902001533 94 156 0.0 0.0 0.00 0.00 0.00 48 1012.5
20260902001028 95 135 0.0 1.0 0.00 0.00 0.00 48 1012.7
20260902000522 95 157 0.0 0.0 0.00 0.00 0.00 48 1012.7
20260902000018 94 152 0.0 1.0 0.00 0.00 0.00 48 1012.6
20260901235513 94 173 0.0 0.0 0.00 0.00 0.00 48 1012.7
20260901235008 95 123 0.0 0.0 0.00 0.00 0.00 48 1012.8
20260901234506 94 137 2.0 3.0 0.00 0.00 0.00 48 1012.5
20260901234001 94 121 0.0 0.0 0.00 0.00 0.00 49 1012.4
20260901233456 94 178 2.0 2.0 0.00 0.00 0.00 48 1012.5
20260901232953 95 175 0.0 0.0 0.00 0.00 0.00 48 1012.6
20260901232448 95 142 2.0 4.0 0.00 0.00 0.00 47 1012.9
20260901231943 95 122 3.0 3.0 0.00 0.00 0.00 47 1012.6
20260901231439 95 175 0.0 1.0 0.00 0.00 0.00 46 1012.8
20260901230936 95 135 2.0 3.0 0.00 0.00 0.00 46 1012.7
20260901230435 95 77 2.0 3.0 0.00 0.00 0.00 46 1012.8
20260901225931 95 108 0.0 0.0 0.00 0.00 0.00 46 1012.8
20260901225430 95 156 0.0 0.0 0.00 0.00 0.00 46 1013.0
20260901224925 95 77 0.0 0.0 0.00 0.00 0.00 46 1012.7
20260901224421 95 193 0.0 0.0 0.00 0.00 0.00 46 1012.9
20260901223918 96 277 1.0 1.0 0.00 0.00 0.00 46 1013.0
20260901223413 95 147 0.0 0.0 0.00 0.00 0.00 46 1012.7